Regional Weather Roundup
Issued by NWS

Home | Current Version | Previous Version | Text Only | Print | Product List | Glossary Off
Versions: 1 2 3 4 5 6 7 8 9 10 11 12 13 14 15 16 17 18 19 20 21 22 23 24 25 26 27 28 29 30 31 32 33 34 35 36 37 38 39 40 41 42 43 44 45 46 47 48 49 50

000
ASUS45 KPSR 041010
RWRAZ

ARIZONA HOURLY REGIONAL WEATHER ROUNDUP
NATIONAL WEATHER SERVICE PHOENIX AZ
300 AM MST SAT JUL 04 2015

NOTE: FAIR INDICATES FEW OR NO CLOUDS BELOW 12,000 FEET WITH NO
SIGNIFICANT WEATHER AND/OR OBSTRUCTIONS TO VISIBILITY.

AZZ001>003-036-041100-
NORTHWEST ARIZONA

CITY           SKY/WX    TMP DP  RH WIND       PRES   REMARKS
BULLHEAD CITY  CLOUDY    95  55  26 SW3       29.73S
KINGMAN        CLOUDY    83  51  33 SE7       29.94F
$$

AZZ004>008-015-016-018-041100-
NORTH CENTRAL ARIZONA

CITY           SKY/WX    TMP DP  RH WIND       PRES   REMARKS
GRAND CANYON   LGT RAIN  62  55  77 CALM      30.19F
WILLIAMS       CLOUDY    63  54  72 S7        30.26S
PRESCOTT       CLOUDY    68  59  73 NW6       30.06S
FLAGSTAFF      CLOUDY    58  57  97 NE7       30.22S
PAYSON         MOCLDY    68  55  64 E5        30.08R
PAGE           CLOUDY    78  55  44 SE14G21   30.01S
$$

AZZ009>014-017-041100-
NORTHEAST ARIZONA

CITY           SKY/WX    TMP DP  RH WIND       PRES   REMARKS
WINSLOW        CLOUDY    67  63  87 SE9       30.09S
SAINT JOHNS    CLOUDY    65  61  87 E3        30.14S
WINDOW ROCK    CLOUDY    60  54  80 CALM      30.20F
SHOW LOW       CLOUDY    57  55  94 CALM      30.19R
$$

AZZ023-041100-
GREATER PHOENIX AREA

CITY           SKY/WX    TMP DP  RH WIND       PRES   REMARKS
PHOENIX        PTCLDY    86  65  49 SW6       29.74S
BUCKEYE          N/A     82  63  51 SW6       29.75S
LUKE AFB       CLEAR     86  63  45 NE7       29.73F
DEER VALLEY    CLEAR     82  63  52 CALM      29.76S
SCOTTSDALE     CLEAR     83  65  54 CALM      29.78S
MESA-GATEWAY   CLEAR     82  63  51 CALM      29.78S
$$

AZZ027-028-041100-
SOUTHWEST MARICOPA COUNTY AND PINAL COUNTY

CITY           SKY/WX    TMP DP  RH WIND       PRES   REMARKS
CASA GRANDE    CLEAR     84  63  48 CALM      29.77S
GILA BEND      FAIR      90  60  36 N3        29.73S
$$

AZZ503-504-507>509-041100-
SOUTHEAST ARIZONA

CITY           SKY/WX    TMP DP  RH WIND       PRES   REMARKS
TUCSON         PTCLDY    84  53  34 W5        29.88S
DAVIS-MONTHAN  PTCLDY    81  53  38 SE5       29.87S
NOGALES        CLOUDY    76  57  51 CALM      29.97F
SIERRA VISTA   CLOUDY    77  56  47 W2        30.03F
DOUGLAS        TSTM      73  62  68 E15       30.04R
SAFFORD        CLOUDY    81  58  45 E13G24    29.92S
$$

AZZ020-021-025-026-031-041100-
SOUTHWEST ARIZONA

CITY           SKY/WX    TMP DP  RH WIND       PRES   REMARKS
YUMA           MOCLDY    92  62  36 CALM      29.69S
$$

CAZ031-033-041-043-047-048-061-041100-
SOUTHERN CALIFORNIA

CITY           SKY/WX    TMP DP  RH WIND       PRES   REMARKS
DOWNTOWN L.A.  CLOUDY    63  59  87 CALM      29.87F
L.A. AIRPORT   CLOUDY    62  59  90 CALM      29.88F
SAN DIEGO      CLOUDY    69  61  75 CALM      29.89F
BURBANK        CLEAR     64  59  83 VRB3      29.87F
ONTARIO        CLEAR     66  54  65 W6        29.88S
RIVERSIDE      CLEAR     67  54  63 W5        29.88F
PALM SPRINGS   PTCLDY    89  53  29 NW13      29.72S
EL CENTRO NAS  PTCLDY    88  52  29 W9        29.68S
IMPERIAL       PTCLDY    84  57  39 W8        29.66S
BLYTHE         CLEAR     89  59  36 CALM      29.69S
NEEDLES        CLOUDY    97  53  22 NE5       29.73R
$$

NVZ020-UTZ003-041100-
SOUTHERN NEVADA-UTAH

CITY           SKY/WX    TMP DP  RH WIND       PRES   REMARKS
LAS VEGAS      MOCLDY    95  30  10 S14       29.75S
SALT LAKE CITY MOCLDY    82  49  31 SE8       29.90R
$$

NMZ009-TXZ055-041100-
NEW MEXICO-WEST TEXAS

CITY           SKY/WX    TMP DP  RH WIND       PRES   REMARKS
ALBUQUERQUE    MOCLDY    72  55  55 E3        30.14S
EL PASO        MOCLDY    79  59  50 E7        30.03R
$$


........................KEY........................
SKY/WX - SKY CONDITION/WEATHER
TMP    - TEMPERATURE IN FAHRENHEIT
DP     - DEW POINT IN FAHRENHEIT
RH     - RELATIVE HUMIDITY IN PERCENT
WIND   - DIRECTION AND SPEED IN MILES PER HOUR (MPH)
VRB    - VARIABLE WIND DIRECTION
PRES   - MEAN SEA LEVEL PRESSURE IN INCHES OF MERCURY
         F - FALLING PRESSURE   R - RISING PRESSURE
         S - STEADY PRESSURE
VSB    - VISIBILITY IN MILES
HX     - HEAT INDEX IN FAHRENHEIT
WCI    - WIND CHILL INDEX IN FAHRENHEIT
TC     - TEMPERATURE IN CELSIUS WHICH IS ALSO KNOWN AS
         TEMPERATURE IN CENTIGRADE
AFB    - AIR FORCE BASE
         LUKE AFB IS LUKE AIR FORCE BASE
         DAVIS-MONTHAN IS DAVIS-MONTHAN AIR FORCE BASE
NAS    - NAVAL AIR STATION
         EL CENTRO NAS IS EL CENTRO NAVAL AIR STATION
N/A    - NOT AVAILABLE




USA.gov is the U.S. government's official web portal to all federal, state and local government web resources and services.